www.pogodaiklimat.ru

Погода и климат >> Архив погоды >> Россия >> Чукотка >> Остров Врангеля


ПОГОДА на Острове Врангеля

АРХИВ ПОГОДЫ на Острове Врангеля

Время (UTC), дата Ветер
(напр.,м/с)
 
Видим.   Явления Облачность Т
(С)
Тd
(С)
f
(%)
Тe
(С)
Тes
(С)
Комфортность P
(гПа)
Po
(гПа)
Тmin
(С)
Tmax
(С)
R
(мм)
R24
(мм)
S
(см)
18 10.11 З 10-13
{15}
4000 м слабый снег {метель} 10/0 300 м
[As op]
-7.6 -8.8 91 -18 -18 1013.3 1010.6 -8.1 0.7 11
21 10.11 З 11-13
{14}
4000 м слабый снег {метель} 10/0 300 м
[As op]
-8.1 -9.7 88 -19 -19 1015.9 1013.2
00 11.11 З 7
{13}
20 км позёмок {снег, метель} 8/6 600 м
[Sc Ac trans]
-10.9 -13.4 82 -20 -20 1017.1 1014.3
03 11.11 З 2
{9}
20 км {метель} 10/10 600 м
[Sc]
-8.6 -11.3 81 -13 -13 1016.9 1014.2
06 11.11 Ю 3
{6}
20 км {метель} 10/10 600 м
[Sc]
-7.4 -10.4 79 -13 -13 1015.2 1012.5 -6.8 0.3
09 11.11 ЮВ 6
{8}
4000 м слабый ливневой снег 10/10 600 м
[Cb cap]
-5.7 -7.5 87 -14 -14 1012.6 1009.9
12 11.11 ЮВ 7
{12}
4000 м слабый ливневой снег {метель} 10/10 600 м
[Cb cap]
-4.0 -4.9 93 -12 -12 1008.5 1005.8
15 11.11 Ю 4
{9}
4000 м слабый ливневой снег {метель} 10/10 600 м
[Cb cap]
-3.2 -4.0 94 -9 -9 1004.2 1001.6
18 11.11 С 1
{5}
20 км {ливн. осадки, метель} 9/8 600 м
[Sc Ac trans]
-3.5 -4.3 94 -6 -6 1001.1 998.4 -7.4 0.6 11
21 11.11 СЗ 3
{5}
4000 м слабый ливневой снег 10/10 300 м
[Cb cap]
-3.7 -4.9 91 -9 -9 998.6 996.0
00 12.11 З 4
{5}
4000 м слабый снег {ливн. осадки} 10/10 300 м
[Sc]
-3.5 -4.4 93 -10 -10 997.3 994.6
03 12.11 З 8-12
{12}
20 км позёмок {снег, метель} 10/8 600 м
[Sc Ac und]
-2.6 -4.7 85 -11 -11 997.6 995.0
06 12.11 З 13-17
{21}
2000 м метель {снег} 9/4 600 м
[Sc Ac trans]
-6.0 -7.4 90 -17 -17 1000.7 998.0 -2.2 0.5
09 12.11 З 15-17
{18}
2000 м метель 9/5 600 м
[Sc Ac trans]
-4.0 -5.4 90 -15 -15 1003.0 1000.3
12 12.11 З 15-19
{21}
2000 м метель 10/8 600 м
[Sc Ac und]
-3.5 -4.8 91 -14 -14 1008.0 1005.4
15 12.11 З 11-15
{22}
2000 м метель 8/6 600 м
[Sc Ac trans Ci fib]
-4.9 -6.4 89 -15 -15 1014.4 1011.7
18 12.11 СЗ 18-22
{23}
2000 м метель 8/4 600 м
[Sc Ac trans Ci fib]
-5.4 -7.0 88 -18 -18 1016.9 1014.2 -6.8 16
21 12.11 СЗ 14-17
{23}
2000 м метель 6/4 600 м
[Sc Ac trans]
-6.3 -8.2 86 -18 -18 1021.7 1018.9
00 13.11 З 11-14
{17}
20 км сильный позёмок {метель} 8/3 600 м
[Sc Ac trans Ci fib]
-6.9 -10.1 78 -17 -17 1026.4 1023.7
03 13.11 З 7
{14}
20 км {метель} 8/4 600 м
[Sc Ac trans Ci fib]
-7.6 -11.1 76 -16 -16 1028.3 1025.5
06 13.11 З 1
{9}
20 км {метель} 9/5 600 м
[Sc Ac trans Ci fib]
-7.9 -11.9 73 -10 -10 1030.8 1028.0 -5.4
09 13.11 З 2
{4}
20 км 9/3 600 м
[Sc Ac trans Ci fib]
-7.1 -12.5 65 -11 -11 1032.1 1029.3
12 13.11 СЗ 3
{4}
20 км 10/4 600 м
[Sc Ac und]
-8.4 -12.5 72 -14 -14 1033.1 1030.3
15 13.11 С 4
{5}
20 км 4/1 600 м
[Sc Ac trans Ci fib]
-9.3 -13.3 73 -16 -16 1033.4 1030.6
18 13.11 С 6
{6}
20 км 8/3 600 м
[Sc Ac trans Ci fib]
-7.3 -11.5 72 -15 -15 1032.8 1030.1 -9.4 15
21 13.11 СВ 5
{7}
20 км 10/4 600 м
[Sc As op]
-6.9 -11.0 73 -14 -14 1032.4 1029.6
00 14.11 В 7
{9}
20 км 9/4 600 м
[Sc Ac trans]
-4.4 -8.5 73 -12 -12 1030.6 1027.8
03 14.11 ЮВ 8-10
{10}
20 км позёмок {метель} 10/10 600 м
[Sc]
-3.5 -7.5 74 -12 -12 1028.7 1026.0
06 14.11 В 9-12
{12}
20 км позёмок {метель} 10/10 600 м
[Sc]
-2.8 -5.6 81 -11 -11 1026.1 1023.4 -2.8
09 14.11 ЮВ 10-13
{13}
20 км позёмок {метель} 10/10 600 м
[Sc]
-1.8 -4.4 82 -11 -11 1023.4 1020.7
12 14.11 В 11-15
{17}
20 км позёмок {метель} 10/10 600 м
[Sc]
-1.6 -3.9 84 -11 -11 1019.3 1016.6
15 14.11 ЮВ 12-15
{17}
20 км позёмок {метель} 10/10 600 м
[Sc]
-1.8 -2.5 95 -11 -11 1016.8 1014.1
18 14.11 ЮВ 10-13
{16}
500 м ливневой снег {метель} 10/10 600 м
[Cb cap]
-1.4 -2.1 95 -10 -10 1013.2 1010.5 -2.8 1 18
21 14.11 ЮВ 8-11
{13}
500 м ливневой снег {метель} 10/10 600 м
[Cb cap]
-0.9 -1.5 96 -9 -9 1009.7 1007.1
00 15.11 В 5
{11}
4000 м слабый ливневой снег {метель} 10/10 300 м
[Cb cap]
-0.7 -1.2 96 -7 -7 1006.8 1004.2
03 15.11 В 2
{8}
4000 м слабый ливневой снег 10/10 300 м
[Cb cap]
-0.4 -0.9 96 -4 -4 1003.4 1000.8
06 15.11 В 2
{3}
4000 м слабый ливневой снег 10/10 300 м
[Cb cap]
-0.3 -0.8 96 -4 -4 1000.8 998.2 -0.3 3
09 15.11 В 1
{4}
4000 м слабый ливневой снег 10/10 300 м
[Cb cap]
-0.3 -0.9 96 -3 -3 999.3 996.7
12 15.11 В 1
{2}
4000 м слабый ливневой снег 10/10 300 м
[Cb cap]
-0.1 -0.7 96 -2 -2 997.8 995.2
15 15.11 СВ 1
{2}
20 км {ливн. осадки} 10/10 300 м
[Sc]
+0.1 -0.4 96 -2 -2 996.1 993.5
18 15.11 СВ 1
{2}
20 км {ливн. осадки} 10/10 300 м
[Sc]
+0.3 -0.4 95 -2 -2 995.0 992.4 -0.4 2 18
21 15.11 ЮЗ 2
{7}
10 км 10/10 100 м
[St]
-0.8 -1.5 95 -5 -5 995.5 992.9 -0.8
00 16.11 ЮЗ 1
{3}
1000 м дымка 10/10 100 м
[St]
-0.6 -1.1 96 -3 -3 996.5 993.8
03 16.11 ЮЗ 1
{7}
4000 м слабый снег 10/8 200 м
[Frnb As op]
-2.5 -3.3 94 -5 -5 997.4 994.8
06 16.11 З 7-10
{11}
4000 м слабый снег {метель} 10/10 200 м
[Frnb Ns]
-6.1 -7.3 91 -15 -15 998.5 995.9 +0.5 0.8
09 16.11 З 9-12
{12}
4000 м слабый снег {метель} 10/10 300 м
[Frnb Ns]
-7.6 -9.1 89 -17 -17 998.7 996.0
12 16.11 З 5
{12}
4000 м слабый снег {метель} 10/4 600 м
[Sc As op]
-7.8 -9.6 87 -15 -15 998.8 996.2
15 16.11 З 6-10
{12}
4000 м слабый снег 10/6 600 м
[Sc As op]
-8.4 -9.8 90 -17 -17 999.3 996.6
18 16.11 З 8-10
{12}
20 км позёмок {снег, метель} 9/5 600 м
[Sc Ac trans]
-9.7 -11.6 86 -19 -19 1000.0 997.3 -9.7 0.7 21
21 16.11 З 8-11
{13}
20 км позёмок {метель} 8/0
[Ac trans Ci fib]
-10.2 -12.1 86 -20 -20 1001.5 998.8 -10.2
00 17.11 З 11-14
{14}
4000 м метель 8/0
[Ac trans Ci fib]
-10.5 -12.1 88 -22 -22 1003.1 1000.3
03 17.11 З 15-19
{19}
4000 м метель 9/0
[Ac trans]
-10.8 -12.2 89 -23 -23 1004.7 1001.9
06 17.11 З 15-19
{21}
2000 м метель 9/0
[Ac trans]
-10.8 -12.3 89 -23 -23 1006.8 1004.1 -8.9
09 17.11 З 12-16
{20}
2000 м метель 9/0
[Ac trans]
-9.9 -11.4 89 -21 -21 1008.9 1006.1
12 17.11 СЗ 15-18
{19}
2000 м метель 10/0
[Ac und]
-6.4 -8.2 87 -18 -18 1010.6 1007.9
15 17.11 СЗ 12-14
{18}
4000 м слабый ливневой снег {метель} 10/5 300 м
[Cb cap Ac und]
-5.3 -7.2 86 -16 -16 1012.6 1009.9

 

Местоположение метеостанции Остров Врангеля (Чукотка, Россия): широта 70.98 долгота -178.00 высота над уровнем моря 21 м.

В архиве по умолчанию представлена погода на Острове Врангеля за последнюю неделю. Архивные данные за месяц целиком и за предыдущие месяцы, начиная с января 2011 года, Вы можете получить, выбрав интересующий диапазон дат из раскрывающегося списка и нажав кнопку "Ввод!".

Внимание! Время в таблицах - всемирное. Для получения местного времени необходимо прибавить поправку, которая на Острове Врангеля равна 12 ч.

Смотрите также архив погоды в соседних городах и на ближайших метеорологических станциях:

Погода на Мысе Шмидта (Чукотка, Россия) (238 км)
Погода на Мысе Биллингс (Чукотка, Россия) (265 км)
Погода в Паляваам-Глубокой (Чукотка, Россия) (364 км)
Погода на Мысе Ванкарем (Чукотка, Россия) (369 км)
Погода в Комсомольской (Чукотка, Россия) (404 км)
Погода в Майской (Чукотка, Россия) (423 км)
Погода в Валькаркае (Чукотка, Россия) (423 км)
Погода в 21 км (Чукотка, Россия) (444 км)
Погода в Певеке (Чукотка, Россия) (463 км)
Погода в Чауне (Чукотка, Россия) (489 км)

Пояснения к столбцам:

Ветер - указаны скорость ветра в м/с - средняя за 10 мин, порывы в срок и между сроками (в фигурных скобках) и направление, откуда дует ветер: С - северный, СВ - северо-восточный, В - восточный, ЮВ - юго-восточный, Ю - южный, ЮЗ - юго-западный, З - западный, СЗ - северо-западный.
Видимость - горизонтальная дальность видимости в метрах или километрах. При видимости от 1 до 10 км при отсутствии осадков обычно наблюдается дымка, при ухудшении видимости до 1 км и менее - туман. В сухую погоду видимость может ухудшаться дымом, пылью или мглою.
Явления - указаны атмосферные явления, наблюдавшиеся в срок или в последний час перед сроком; фигурными скобками обозначены явления, наблюдавшиеся между сроками (за 1-3 часа до срока); квадратными скобками обозначены град или гололедные отложения с указанием их диаметра в мм.
Облачность - указаны через наклонную черту общая и нижняя облачность в баллах и высота нижней границы облаков в метрах; квадратными скобками обозначены формы облаков: Ci - перистые, Cs - перисто-слоистые, Cc - перисто-кучевые, Ac - высококучевые, As - высокослоистые, Sc - слоисто-кучевые, Ns - слоисто-дождевые, Cu - кучевые, Cb - кучево-дождевые. Подробнее классификацию облаков см. в Атласе облаков (PDF).
T - Температура воздуха - температура, измеренная на высоте 2 м над землей.
Td - Температура точки росы - температура, при понижении до которой содержащийся в воздухе водяной пар достигнет насыщения.
f - Относительная влажность воздуха - влажноcть воздуха, измеренная на высоте 2 м над землей.
Te - Эффективная температура - температура, которую ощущает одетый по сезону человек в тени. Характеристика душности погоды. При расчете учитывается влияние влажности воздуха и скорости ветра на теплоощущения человека.
Tes - Эффективная температура на солнце - температура, которую ощущает человек, с поправкой на солнечный нагрев. Характеристика знойности погоды. Зависит от высоты солнца над горизонтом, облачности и скорости ветра. Ночью, в пасмурную погоду, а также при ветре 12 м/с и более поправка равна нулю.
P - Атмосферное давление - приведенное к уровню моря атмосферное давление.
Po - Атмосферное давление - измеренное на уровне метеостанции атмосферное давление.
Tmin - Минимальная температура - минимум температуры воздуха на высоте 2 м над землей.
Tmax - Максимальная температура - максимум температуры воздуха на высоте 2 м над землей.
R - Количество осадков - Количество выпавших осадков за период времени, мм. При наведении курсора мыши на число - период времени, за который выпало указанное количество осадков.
R24 - Количество осадков - Количество выпавших осадков за 24 часа, мм.
S - Снежный покров - Высота снежного покрова, см. При наведении курсора мыши на число - состояние снежного покрова и степень покрытия местности в баллах.